Orbital Elements at Epoch 2459000.5 (2020-May-31.0) TDB
Reference: JPL 15 (heliocentric ecliptic J2000)
Element | Value | Uncertainty (1-sigma) | Units |
e | .2504984709538864 | 8.3783e-08 | |
a | 3.98149815877996 | 6.7673e-08 | au |
q | 2.984138957899865 | 3.646e-07 | au |
i | 2.027864576852425 | 6.9141e-06 | deg |
node | 217.2136195941471 | 0.00024021 | deg |
peri | 139.8367161892984 | 0.00024091 | deg |
M | 106.7286391598967 | 1.5273e-05 | deg |
tp | 2458140.206429936074 (2018-Jan-21.70642994) | 0.00011761 | TDB |
period | 2901.804873188949 7.94 | 7.3982e-05 2.026e-07 | d yr |
n | .1240607193564937 | 3.163e-09 | deg/d |
Q | 4.978857359660053 | 8.4625e-08 | au |
|
| | Orbit Determination Parameters
Additional Information
|